Regional Weather Roundup
Issued by NWS Nashville, TN

Current Version | Previous Version | Text Only | Print | Product List | Glossary Off
Versions: 1 2 3 4 5 6 7 8 9 10 11 12 13 14 15 16 17 18 19 20 21 22 23 24 25 26 27 28 29 30 31 32 33 34 35 36 37 38 39 40 41 42 43 44 45 46 47 48 49 50

000
ASUS44 KOHX 060910
RWROHX
MIDDLE TENNESSEE HOURLY WEATHER ROUNDUP
NATIONAL WEATHER SERVICE NASHVILLE TN
300 AM CST FRI MAR 06 2015

NOTE: "FAIR" INDICATES FEW OR NO CLOUDS BELOW 12,000 FEET WITH
NO SIGNIFICANT WEATHER AND/OR OBSTRUCTIONS TO VISIBILITY.

* THESE REPORTS ARE NOT UNDER NWS QUALITY CONTROL AND MAY NOT
  REPORT WEATHER SUCH AS PRECIPITATION AND FOG.


TNZ005>011-023>034-057-059-062>066-078-080-061000
...NORTHERN MIDDLE TENNESSEE...

CITY           SKY/WX    TMP DP  RH WIND       PRES   REMARKS
CLARKSVILLE    PTCLDY     5   2  87 CALM      30.56F
CROSSVILLE     PTCLDY    13   9  84 NE5       30.40F WCI   5
GALLATIN         N/A     11   5  76 N5        30.53F WCI   3
DICKSON        PTCLDY     9   1  72 CALM      30.51F
LIVINGSTON     PTCLDY    13  10  87 CALM      30.44F
NASHVILLE      PTCLDY    12   7  80 NW3       30.55S
PORTLAND       PTCLDY     1   0  92 CALM      30.51F
SMYRNA         PTCLDY    10   5  80 CALM      30.56S
SPARTA         CLEAR     12  12 100 CALM      30.47R
$$
TNZ056-058-060-061-075>077-079-093>097-061000
...SOUTHERN MIDDLE TENNESSEE...

CITY           SKY/WX    TMP DP  RH WIND       PRES   REMARKS
COLUMBIA         N/A     12  10  92 CALM      30.50F
LEWISBURG      PTCLDY    13   7  77 N3        30.51S
MCMINNVILLE    CLEAR     16  12  86 N5        30.47S WCI   9
MURFREESBORO   PTCLDY    12   7  81 CALM      30.53S
SHELBYVILLE    CLEAR     14  10  85 N6        30.50F WCI   5
TULLAHOMA      CLEAR     10   9  92 N3          N/A
WINCHESTER     CLEAR     16  12  86 CALM      30.47F
$$


...KEY TO REMARKS...
VSB - VISIBILITY IN MILES
WCI - WIND CHILL INDEX
HX  - HEAT INDEX



USA.gov is the U.S. government's official web portal to all federal, state and local government web resources and services.